Marrakech, Morocco

12:22 PM WET on June 24, 2017 (GMT +0000)
Marrakech

Weather History for GMMX - February, 2012

Change the Weather History Date:

Sunday, February 19, 2012

  Actual Average Record
Temperature  
Mean Temperature 54 °F -  
Max Temperature 65 °F 71 °F 80 °F (1997)
Min Temperature 42 °F 48 °F 41 °F (1999)
Degree Days  
Heating Degree Days 12    
Growing Degree Days 4 (Base 50)    
Moisture  
Dew Point 41 °F    
Average Humidity 63    
Maximum Humidity 100    
Minimum Humidity 21    
Precipitation  
Precipitation 0.00 in 0.05 in - ()
Sea Level Pressure  
Sea Level Pressure 30.14 in    
Wind  
Wind Speed 4 mph ()    
Max Wind Speed 10 mph    
Max Gust Speed -    
Visibility 4.8 miles    
Events      
Averages and records for this station are not official NWS values.
T = Trace of Precipitation, MM = Missing Value Source: Averaged Metar Reports

Daily Weather History Graph

Daily Weather History Graph

Search for Another Location

Airport or City:

Trip Planner

Search our weather history database for the weather conditions in past years. The results will help you decide how hot, cold, wet, or windy it might be!

Date:

Astronomy

Feb. 19, 2012 Rise Set
Actual Time 7:10 AM WET 6:21 PM WET
Civil Twilight 6:45 AM WET 6:46 PM WET
Nautical Twilight 6:17 AM WET 7:14 PM WET
Astronomical Twilight 5:49 AM WET 7:43 PM WET
Moon 5:15 AM WET (2/19) 4:13 PM WET (2/19)
Length of Visible Light 12h 00m
Length of Day
11h 11m
Waning Crescent, 6% of the Moon is Illuminated
Feb 19
Waning Crescent
Feb 21
New
Mar 1
First Quarter
Mar 8
Full
Mar 15
Last Quarter

Hourly Weather History & Observations

Time (WET) Temp. Windchill Dew Point Humidity Pressure Visibility Wind Dir Wind Speed Gust Speed Precip Events Conditions
12:00 AM 50.0 °F - 46.4 °F 87% 30.15 in 4.3 mi East 2.3 mph - N/A   Mostly Cloudy
12:30 AM 51.8 °F - 46.4 °F 82% 30.15 in 4.3 mi ESE 3.5 mph - N/A   Mostly Cloudy
1:00 AM 50.0 °F - 46.4 °F 87% 30.12 in 3.7 mi East 4.6 mph - N/A   Mostly Cloudy
1:30 AM 50.0 °F - 46.4 °F 87% 30.12 in 4.3 mi East 2.3 mph - N/A   Mostly Cloudy
2:00 AM 50.0 °F - 46.4 °F 87% 30.12 in 4.3 mi Variable 1.2 mph - N/A   Mostly Cloudy
2:30 AM 50.0 °F - 46.4 °F 87% 30.12 in 3.1 mi West 2.3 mph - N/A   Mostly Cloudy
3:00 AM 49 °F - 46 °F 86% 30.15 in 3 mi West 1.2 mph - -   Mostly Cloudy
3:00 AM 50.0 °F - 46.4 °F 87% 30.12 in 2.8 mi Variable 2.3 mph - N/A   Mostly Cloudy
3:30 AM 48.2 °F - 44.6 °F 87% 30.12 in 4.3 mi Variable 2.3 mph - N/A   Mostly Cloudy
4:00 AM 48.2 °F - 46.4 °F 93% 30.12 in 5.0 mi East 3.5 mph - N/A   Mostly Cloudy
4:30 AM 48.2 °F - 44.6 °F 87% 30.12 in 4.3 mi ENE 2.3 mph - N/A   Scattered Clouds
5:00 AM 48.2 °F - 44.6 °F 87% 30.12 in 4.3 mi ENE 2.3 mph - N/A   Scattered Clouds
5:30 AM 46.4 °F 45.2 °F 42.8 °F 87% 30.12 in 3.7 mi ENE 3.5 mph - N/A   Scattered Clouds
6:00 AM 47 °F - 44 °F 87% 30.15 in 4 mi NNE 3.5 mph - -   Partly Cloudy
6:00 AM 46.4 °F 45.2 °F 44.6 °F 93% 30.12 in 3.7 mi NNE 3.5 mph - N/A   Scattered Clouds
6:30 AM 46.4 °F - 42.8 °F 87% 30.12 in 4.3 mi Calm Calm - N/A   Scattered Clouds
7:00 AM 44.6 °F - 41.0 °F 87% 30.12 in 3.7 mi Calm Calm - N/A   Scattered Clouds
7:16 AM 42.8 °F 41.1 °F 39.2 °F 87% 30.15 in 1.9 mi WSW 3.5 mph - N/A   Scattered Clouds
8:00 AM 42.8 °F - 42.8 °F 100% 30.15 in - West 1.2 mph - N/A   Partly Cloudy
8:30 AM 46.4 °F 45.2 °F 44.6 °F 93% 30.15 in 1.9 mi WSW 3.5 mph - N/A   Partly Cloudy
9:00 AM 46.4 °F 45.2 °F 44.6 °F 93% 30.18 in 1.9 mi West 3.5 mph - N/A   Partly Cloudy
9:30 AM 50.0 °F - 46.4 °F 87% 30.18 in 2.5 mi Variable 2.3 mph - N/A   Partly Cloudy
9:46 AM 51.8 °F - 46.4 °F 82% 30.18 in 3.1 mi North 5.8 mph - N/A   Partly Cloudy
10:00 AM 51.8 °F - 44.6 °F 76% 30.18 in 3.1 mi North 5.8 mph - N/A   Partly Cloudy
10:30 AM 53.6 °F - 44.6 °F 72% 30.18 in 3.7 mi North 6.9 mph - N/A   Partly Cloudy
11:00 AM 55.4 °F - 42.8 °F 63% 30.18 in 5.0 mi NE 10.4 mph - N/A   Partly Cloudy
11:30 AM 57.2 °F - 42.8 °F 59% 30.18 in 5.0 mi NE 10.4 mph - N/A   Partly Cloudy
12:00 PM 59 °F - 42 °F 41% 30.16 in 5 mi NE 10.4 mph - -   Scattered Clouds
12:00 PM 57.2 °F - 42.8 °F 59% 30.15 in 5.0 mi NE 10.4 mph - N/A   Partly Cloudy
12:30 PM 60.8 °F - 41.0 °F 48% 30.15 in 5.0 mi NE 9.2 mph - N/A   Partly Cloudy
1:00 PM 60.8 °F - 41.0 °F 48% 30.15 in 5.0 mi NE 10.4 mph - N/A   Partly Cloudy
1:30 PM 62.6 °F - 41.0 °F 45% 30.12 in 6.2 mi ENE 6.9 mph - N/A   Partly Cloudy
2:00 PM 64.4 °F - 39.2 °F 40% 30.12 in 6.2 mi NE 9.2 mph - N/A   Partly Cloudy
2:30 PM 64.4 °F - 39.2 °F 40% 30.09 in 6.2 mi ENE 8.1 mph - N/A   Partly Cloudy
3:00 PM 64 °F - 40 °F 29% 30.07 in 6 mi NE 6.9 mph - -   Scattered Clouds
3:00 PM 64.4 °F - 41.0 °F 42% 30.09 in 6.2 mi NE 6.9 mph - N/A   Partly Cloudy
3:30 PM 64.4 °F - 39.2 °F 40% 30.09 in 6.2 mi NNE 8.1 mph - N/A   Partly Cloudy
4:00 PM 66.2 °F - 37.4 °F 35% 30.09 in 6.2 mi NNE 5.8 mph - N/A   Partly Cloudy
4:30 PM 66.2 °F - 39.2 °F 37% 30.09 in 6.2 mi North 8.1 mph - N/A   Scattered Clouds
5:00 PM 66.2 °F - 37.4 °F 35% 30.09 in 6.2 mi NNE 8.1 mph - N/A   Scattered Clouds
5:30 PM 66.2 °F - 37.4 °F 35% 30.12 in 6.2 mi NNE 6.9 mph - N/A   Scattered Clouds
6:00 PM 65 °F - 35 °F 21% 30.09 in 6 mi NNE 6.9 mph - -   Partly Cloudy
6:00 PM 64.4 °F - 33.8 °F 32% 30.12 in 6.2 mi NNE 6.9 mph - N/A   Scattered Clouds
6:30 PM 62.6 °F - 33.8 °F 34% 30.12 in 6.2 mi NE 8.1 mph - N/A   Scattered Clouds
7:00 PM 60.8 °F - 33.8 °F 36% 30.12 in 5.0 mi NE 6.9 mph - N/A   Scattered Clouds
7:30 PM 60.8 °F - 33.8 °F 36% 30.12 in 5.0 mi ENE 4.6 mph - N/A   Scattered Clouds
8:00 PM 60.8 °F - 35.6 °F 39% 30.15 in 5.0 mi SE 10.4 mph - N/A   Scattered Clouds
8:30 PM 59.0 °F - 35.6 °F 42% 30.18 in 6.2 mi SE 4.6 mph - N/A   Scattered Clouds
9:00 PM 57 °F - 36 °F 33% 30.18 in 6 mi East 4.6 mph - -   Partly Cloudy
9:00 PM 57.2 °F - 35.6 °F 44% 30.18 in 6.2 mi East 4.6 mph - N/A   Scattered Clouds
9:30 PM 55.4 °F - 37.4 °F 51% 30.18 in 6.2 mi East 4.6 mph - N/A   Scattered Clouds
10:00 PM 53.6 °F - 37.4 °F 54% 30.18 in 6.2 mi NE 4.6 mph - N/A   Partly Cloudy
10:30 PM 55.4 °F - 39.2 °F 54% 30.18 in 6.2 mi NNE 4.6 mph - N/A   Partly Cloudy
11:00 PM 53.6 °F - 41.0 °F 62% 30.21 in 6.2 mi NNE 4.6 mph - N/A   Partly Cloudy
11:30 PM 53.6 °F - 41.0 °F 62% 30.18 in 6.2 mi NE 3.5 mph - N/A   Partly Cloudy